STARLINK-11172, 60193

Orbit data source: Space-Track

STARLINK-11172, 60193 is a payload satellite owned by SpaceX/Seattle (US) in LEO that was launched on Wed, 03 Jul 2024 UTC via an FALCON 9 launch vehicle from the Air Force Eastern Test Range (AFETR). Payload-class satellites include a variety of spacecraft equipped with specific instruments for various scientific and technological missions. These include communications satellites like Starlink; space stations such as the ISS; scientific satellites like the Hubble; Earth observation satellites from companies like Planet Labs, Umbra, and HawkEye 360; GPS; miniature CubeSats for education and research; and military/defense satellites.

Loading next visibility...
Identifier
60193, 2024-124L
Orbit
LEO
Country
Flag of USUS
Related business
Manufacturer
SpaceX/Seattle
Mission
Operational Commercial Communications
Bus & Motor
STARLINK V2MD, Unknown motor
Mass
960 kg wet, ~910 kg dry
Launch date (UTC)
2024-07-03 (1 year ago)
Launch vehicle
FALCON 9
Launch site
Air Force Eastern Test Range (AFETR)
Object type
Payload
Rocket body
Debris
Shape & HBR
Box + 2 Pan, 14.5 m
Radar Cross Section
36.964 m², Large (>1 m²)

Expand to show TLE details & history
Last TLE update: 20 hours ago

TLE from 20 hours ago
0 STARLINK-11172
1 60193U 24124L   25260.13194806 -.00002194  00000-0 -13258-4 0  9990
2 60193  53.1589 296.9200 0001278  85.5504 274.5660 15.69695386 69277
Epoch: 2025-09-17T03:10Z
TLE epoch observation values (Epoch: 2025-09-17T03:10:00.312Z)
Latitude
-0.00001°
Longitude
-106.8936°
Altitude
360.615 km
Speed
7.694 km/s
True Right ascension
19h 47m 40s
True Declination
0° 00' 00"
Sunlit
Object was in full shadow at epoch
Visualization orbit readout
Latitude
Unknown
Longitude
Unknown
Altitude
Unknown
Speed
Unknown
Apparent Right ascension
Unknown
Apparent Declination
Unknown
Sunlit
N/A
Visualization observer readout
Local Sidereal Time
15:41:14
Azimuth
Unknown
Elevation
Unknown
Doppler factor
Unknown
Orbital elements
Apogee altitude
360.891 km
Perigee altitude
359.168 km
Semi-major axis
6,738.166 km
Eccentricity
0.00013
Inclination
53.1589°
RAAN
296.92°
Arg. of periapsis
85.5504°
True anomaly
274.5514°
Mean anomaly
274.566°
Eccentric anomaly
274.5587°
Mean motion
3.92401 °/min
Orbital period
91.74 mins
BSTAR
-0.000013258
Loading maneuver chart data...
Computing Atmospheric mass density...
Loading historical data...
Loading historical data...
Loading historical data...
Loading historical data...
Loading historical data...
Loading historical data...
Loading historical data...

Documentation

Showing up to 5 results
|